RA1483K UUOO-URWW

Flight info

Callsign RA1483K
Flight time N/A
Altitude 5000
Route OO302 OSGAD NIBIM AMDEL UVRAG
Aircraft C172/M-SDE3FGHIRWY/C

Departure

Time N/A
Airport Voronezh International Airport (UUOO)

Arrival

Time 2026-05-05 10:59
Airport Volgograd International Airport (URWW)
Time Latitude Longitude Altitude Speed Heading
2026-05-05 09:59 49.42033 42.01929 5016 ft 108 kts 141°
2026-05-05 09:59 49.41439 42.02603 5016 ft 106 kts 141°
2026-05-05 09:59 49.40855 42.03266 5032 ft 103 kts 140°
2026-05-05 09:59 49.40256 42.03945 5025 ft 107 kts 141°
2026-05-05 10:00 49.39647 42.04632 5023 ft 110 kts 141°
2026-05-05 10:00 49.39029 42.05333 5029 ft 113 kts 141°
2026-05-05 10:00 49.38393 42.06048 5037 ft 114 kts 142°
2026-05-05 10:00 49.37759 42.06766 5038 ft 112 kts 141°
2026-05-05 10:01 49.37341 42.07239 5035 ft 113 kts 142°
2026-05-05 10:01 49.36719 42.07941 5021 ft 108 kts 141°
2026-05-05 10:01 49.36107 42.08636 5024 ft 111 kts 141°
2026-05-05 10:01 49.35267 42.09582 5024 ft 112 kts 141°
2026-05-05 10:02 49.34849 42.10054 5009 ft 112 kts 140°
2026-05-05 10:02 49.34228 42.10755 4997 ft 108 kts 141°
2026-05-05 10:02 49.33433 42.11657 4991 ft 106 kts 141°
2026-05-05 10:02 49.33033 42.12105 4997 ft 106 kts 141°
2026-05-05 10:03 49.32216 42.13029 5006 ft 112 kts 141°
2026-05-05 10:03 49.31791 42.13505 5002 ft 111 kts 141°
2026-05-05 10:03 49.31169 42.14209 5008 ft 113 kts 141°
2026-05-05 10:03 49.30540 42.14916 5000 ft 114 kts 140°
2026-05-05 10:04 49.29905 42.15632 5004 ft 113 kts 141°
2026-05-05 10:04 49.29276 42.16339 5003 ft 112 kts 141°
2026-05-05 10:04 49.28643 42.17050 4995 ft 113 kts 141°
2026-05-05 10:04 49.28005 42.17767 4992 ft 113 kts 140°
2026-05-05 10:05 49.27377 42.18475 5005 ft 114 kts 141°
2026-05-05 10:05 49.26741 42.19191 5008 ft 111 kts 142°
2026-05-05 10:05 49.26108 42.19902 4999 ft 114 kts 141°
2026-05-05 10:05 49.25470 42.20617 4998 ft 113 kts 142°
2026-05-05 10:06 49.24839 42.21327 4993 ft 110 kts 141°
2026-05-05 10:06 49.24226 42.22017 4992 ft 111 kts 140°
2026-05-05 10:06 49.23592 42.22732 5000 ft 115 kts 141°
2026-05-05 10:06 49.22941 42.23457 5000 ft 116 kts 141°
2026-05-05 10:07 49.22292 42.24184 5002 ft 115 kts 141°
2026-05-05 10:07 49.21657 42.24896 4994 ft 110 kts 141°
2026-05-05 10:07 49.21045 42.25586 4998 ft 112 kts 141°
2026-05-05 10:07 49.20408 42.26301 5003 ft 114 kts 141°
2026-05-05 10:08 49.19767 42.27019 5002 ft 114 kts 140°
2026-05-05 10:08 49.19139 42.27722 5007 ft 113 kts 141°
2026-05-05 10:08 49.18497 42.28443 5005 ft 115 kts 141°
2026-05-05 10:08 49.17863 42.29151 4992 ft 113 kts 141°
2026-05-05 10:09 49.17226 42.29865 4998 ft 114 kts 142°
2026-05-05 10:09 49.16585 42.30582 4985 ft 111 kts 141°
2026-05-05 10:09 49.15970 42.31269 4998 ft 111 kts 141°
2026-05-05 10:09 49.15339 42.31971 4994 ft 111 kts 140°
2026-05-05 10:10 49.14708 42.32679 5003 ft 115 kts 141°
2026-05-05 10:10 49.14050 42.33413 5013 ft 119 kts 143°
2026-05-05 10:10 49.13413 42.34122 4988 ft 110 kts 139°
2026-05-05 10:10 49.12773 42.34845 5010 ft 119 kts 142°
2026-05-05 10:11 49.12091 42.35595 4983 ft 119 kts 142°
2026-05-05 10:11 49.11440 42.36305 5000 ft 114 kts 140°
2026-05-05 10:11 49.10804 42.37044 5003 ft 117 kts 141°
2026-05-05 10:11 49.10136 42.37779 5004 ft 121 kts 141°
2026-05-05 10:12 49.09440 42.38555 4999 ft 125 kts 141°
2026-05-05 10:12 49.08737 42.39333 4993 ft 123 kts 141°
2026-05-05 10:12 49.08062 42.40086 4993 ft 120 kts 140°
2026-05-05 10:12 49.07417 42.40805 4988 ft 110 kts 140°
2026-05-05 10:13 49.06798 42.41500 4989 ft 113 kts 141°
2026-05-05 10:13 49.06182 42.42186 4994 ft 106 kts 139°
2026-05-05 10:13 49.05562 42.42880 5003 ft 118 kts 142°
2026-05-05 10:13 49.04892 42.43616 5003 ft 119 kts 140°
2026-05-05 10:14 49.04234 42.44352 5001 ft 116 kts 141°
2026-05-05 10:14 49.03580 42.45075 5003 ft 117 kts 140°
2026-05-05 10:14 49.02928 42.45797 5000 ft 114 kts 140°
2026-05-05 10:14 49.02284 42.46519 4999 ft 115 kts 141°
2026-05-05 10:15 49.01631 42.47242 5000 ft 114 kts 139°
2026-05-05 10:15 49.00975 42.47973 5007 ft 119 kts 142°
2026-05-05 10:15 49.00311 42.48706 5001 ft 117 kts 142°
2026-05-05 10:15 48.99643 42.49445 5006 ft 120 kts 141°
2026-05-05 10:16 48.98963 42.50199 5005 ft 122 kts 140°
2026-05-05 10:16 48.98277 42.50955 5006 ft 122 kts 141°
2026-05-05 10:16 48.97601 42.51715 4978 ft 119 kts 140°
2026-05-05 10:16 48.96962 42.52408 4982 ft 108 kts 140°
2026-05-05 10:17 48.96379 42.53063 5003 ft 106 kts 137°
2026-05-05 10:17 48.95770 42.53750 5002 ft 112 kts 140°
2026-05-05 10:17 48.95190 42.54531 4993 ft 110 kts 120°
2026-05-05 10:17 48.94963 42.55591 4988 ft 107 kts 95°
2026-05-05 10:18 48.94870 42.56712 4987 ft 105 kts 95°
2026-05-05 10:18 48.94772 42.57824 5001 ft 108 kts 95°
2026-05-05 10:18 48.94670 42.58968 5006 ft 110 kts 96°
2026-05-05 10:18 48.94566 42.60141 5004 ft 112 kts 95°
2026-05-05 10:19 48.94462 42.61326 5000 ft 114 kts 95°
2026-05-05 10:19 48.94357 42.62518 5001 ft 114 kts 95°
2026-05-05 10:19 48.94254 42.63695 5005 ft 114 kts 96°
2026-05-05 10:19 48.94149 42.64883 4991 ft 110 kts 95°
2026-05-05 10:20 48.94049 42.66029 4990 ft 109 kts 95°
2026-05-05 10:20 48.93951 42.67167 4986 ft 106 kts 96°
2026-05-05 10:20 48.93855 42.68228 4998 ft 97 kts 95°
2026-05-05 10:20 48.93764 42.69288 4997 ft 104 kts 95°
2026-05-05 10:21 48.93668 42.70393 4993 ft 105 kts 95°
2026-05-05 10:21 48.93571 42.71490 4996 ft 105 kts 95°
2026-05-05 10:21 48.93474 42.72580 4989 ft 104 kts 96°
2026-05-05 10:21 48.93375 42.73692 4991 ft 107 kts 95°
2026-05-05 10:22 48.93279 42.74769 4985 ft 105 kts 95°
2026-05-05 10:22 48.93185 42.75849 4991 ft 101 kts 95°
2026-05-05 10:22 48.93090 42.76920 4988 ft 102 kts 96°
2026-05-05 10:22 48.92995 42.77997 4985 ft 103 kts 95°
2026-05-05 10:23 48.92897 42.79065 4988 ft 103 kts 95°
2026-05-05 10:23 48.92801 42.80147 4989 ft 104 kts 95°
2026-05-05 10:23 48.92703 42.81233 4994 ft 104 kts 96°
2026-05-05 10:23 48.92607 42.82305 4989 ft 102 kts 95°
2026-05-05 10:24 48.92512 42.83375 4990 ft 102 kts 94°
2026-05-05 10:24 48.92415 42.84452 4992 ft 104 kts 95°
2026-05-05 10:24 48.92318 42.85539 4996 ft 104 kts 95°
2026-05-05 10:24 48.92218 42.86621 4987 ft 102 kts 95°
2026-05-05 10:25 48.92126 42.87681 4992 ft 102 kts 95°
2026-05-05 10:25 48.92029 42.88762 4994 ft 103 kts 95°
2026-05-05 10:25 48.91930 42.89849 4993 ft 104 kts 95°
2026-05-05 10:25 48.91830 42.90940 4996 ft 105 kts 96°
2026-05-05 10:26 48.91732 42.92033 4995 ft 104 kts 96°
2026-05-05 10:26 48.91634 42.93121 4990 ft 103 kts 95°
2026-05-05 10:26 48.91536 42.94200 4989 ft 103 kts 95°
2026-05-05 10:26 48.91438 42.95284 4988 ft 104 kts 96°
2026-05-05 10:27 48.91340 42.96366 4993 ft 103 kts 95°
2026-05-05 10:27 48.91241 42.97451 4991 ft 104 kts 96°
2026-05-05 10:27 48.91142 42.98529 4990 ft 102 kts 95°
2026-05-05 10:27 48.91046 42.99590 4993 ft 101 kts 95°
2026-05-05 10:28 48.90949 43.00669 4995 ft 105 kts 96°
2026-05-05 10:28 48.90849 43.01754 4992 ft 104 kts 95°
2026-05-05 10:28 48.90748 43.02843 4994 ft 103 kts 95°
2026-05-05 10:28 48.90652 43.03902 4990 ft 103 kts 95°
2026-05-05 10:29 48.90554 43.04980 4994 ft 104 kts 96°
2026-05-05 10:29 48.90454 43.06071 4992 ft 104 kts 95°
2026-05-05 10:29 48.90356 43.07142 4985 ft 100 kts 95°
2026-05-05 10:29 48.90261 43.08180 4987 ft 98 kts 94°
2026-05-05 10:30 48.90166 43.09229 4987 ft 102 kts 95°
2026-05-05 10:30 48.90065 43.10315 4991 ft 104 kts 95°
2026-05-05 10:30 48.89965 43.11394 4994 ft 103 kts 95°
2026-05-05 10:30 48.89866 43.12474 4996 ft 104 kts 94°
2026-05-05 10:31 48.89764 43.13563 4999 ft 104 kts 94°
2026-05-05 10:31 48.89664 43.14650 4998 ft 104 kts 95°
2026-05-05 10:31 48.89565 43.15721 4994 ft 103 kts 94°
2026-05-05 10:31 48.89466 43.16791 4992 ft 101 kts 95°
2026-05-05 10:32 48.89368 43.17853 4999 ft 103 kts 94°
2026-05-05 10:32 48.89268 43.18923 4986 ft 101 kts 95°
2026-05-05 10:32 48.89171 43.19979 4988 ft 101 kts 94°
2026-05-05 10:32 48.89073 43.21036 4990 ft 101 kts 95°
2026-05-05 10:33 48.88975 43.22090 4987 ft 101 kts 95°
2026-05-05 10:33 48.88878 43.23139 4987 ft 100 kts 94°
2026-05-05 10:33 48.88781 43.24177 4990 ft 99 kts 95°
2026-05-05 10:33 48.88684 43.25217 4996 ft 101 kts 95°
2026-05-05 10:34 48.88585 43.26281 4993 ft 102 kts 95°
2026-05-05 10:34 48.88484 43.27349 4997 ft 101 kts 95°
2026-05-05 10:34 48.88384 43.28407 4997 ft 101 kts 95°
2026-05-05 10:34 48.88283 43.29484 4992 ft 104 kts 95°
2026-05-05 10:35 48.88181 43.30572 4996 ft 104 kts 95°
2026-05-05 10:35 48.88079 43.31655 4998 ft 104 kts 95°
2026-05-05 10:35 48.87978 43.32736 4997 ft 106 kts 95°
2026-05-05 10:35 48.87873 43.33832 4991 ft 104 kts 95°
2026-05-05 10:36 48.87772 43.34916 4988 ft 103 kts 93°
2026-05-05 10:36 48.87671 43.35999 4991 ft 104 kts 95°
2026-05-05 10:36 48.87567 43.37091 4989 ft 103 kts 95°
2026-05-05 10:36 48.87464 43.38177 4996 ft 105 kts 95°
2026-05-05 10:37 48.87359 43.39284 4996 ft 106 kts 95°
2026-05-05 10:37 48.87255 43.40380 4989 ft 103 kts 95°
2026-05-05 10:37 48.87153 43.41446 4996 ft 101 kts 92°
2026-05-05 10:37 48.87054 43.42519 4994 ft 105 kts 95°
2026-05-05 10:38 48.86949 43.43606 4993 ft 104 kts 94°
2026-05-05 10:38 48.86846 43.44696 4992 ft 104 kts 95°
2026-05-05 10:38 48.86742 43.45778 4992 ft 104 kts 95°
2026-05-05 10:38 48.86640 43.46857 4989 ft 102 kts 95°
2026-05-05 10:39 48.86537 43.47923 4992 ft 102 kts 94°
2026-05-05 10:39 48.86435 43.48997 4995 ft 104 kts 94°
2026-05-05 10:39 48.86330 43.50095 4993 ft 105 kts 95°
2026-05-05 10:39 48.86226 43.51185 4993 ft 104 kts 94°
2026-05-05 10:40 48.86123 43.52263 4991 ft 103 kts 94°
2026-05-05 10:40 48.86019 43.53346 4992 ft 103 kts 94°
2026-05-05 10:40 48.85915 43.54423 4989 ft 103 kts 95°
2026-05-05 10:40 48.85812 43.55500 4994 ft 104 kts 95°
2026-05-05 10:41 48.85707 43.56592 4992 ft 104 kts 95°
2026-05-05 10:41 48.85602 43.57686 4994 ft 106 kts 95°
2026-05-05 10:41 48.85495 43.58787 4995 ft 108 kts 95°
2026-05-05 10:41 48.85386 43.59903 4985 ft 105 kts 95°
2026-05-05 10:42 48.85178 43.62074 4988 ft 107 kts 95°
2026-05-05 10:42 48.85070 43.63188 4982 ft 105 kts 94°
2026-05-05 10:42 48.84964 43.64275 4986 ft 105 kts 95°
2026-05-05 10:43 48.84858 43.65370 4984 ft 104 kts 95°
2026-05-05 10:43 48.84754 43.66453 4975 ft 102 kts 94°
2026-05-05 10:43 48.84649 43.67520 4981 ft 102 kts 95°
2026-05-05 10:43 48.84549 43.68575 4983 ft 99 kts 94°
2026-05-05 10:44 48.84448 43.69624 4983 ft 101 kts 95°
2026-05-05 10:44 48.84343 43.70684 4989 ft 103 kts 94°
2026-05-05 10:44 48.84239 43.71754 4985 ft 101 kts 96°
2026-05-05 10:44 48.84134 43.72820 4982 ft 101 kts 95°
2026-05-05 10:45 48.84032 43.73864 4986 ft 100 kts 94°
2026-05-05 10:45 48.83930 43.74921 4989 ft 102 kts 94°
2026-05-05 10:45 48.83826 43.75974 4979 ft 100 kts 95°
2026-05-05 10:45 48.83726 43.77002 4974 ft 97 kts 94°
2026-05-05 10:46 48.83629 43.77997 4975 ft 97 kts 94°
2026-05-05 10:46 48.83529 43.79020 4984 ft 99 kts 95°
2026-05-05 10:46 48.83425 43.80075 4990 ft 103 kts 94°
2026-05-05 10:46 48.83318 43.81152 4990 ft 102 kts 95°
2026-05-05 10:47 48.83213 43.82214 4995 ft 102 kts 95°
2026-05-05 10:47 48.83107 43.83284 4994 ft 102 kts 94°
2026-05-05 10:47 48.83001 43.84357 4992 ft 103 kts 95°
2026-05-05 10:47 48.82896 43.85422 4989 ft 100 kts 95°
2026-05-05 10:48 48.82794 43.86461 4984 ft 99 kts 95°
2026-05-05 10:48 48.82692 43.87498 4987 ft 100 kts 94°
2026-05-05 10:48 48.82588 43.88540 4987 ft 100 kts 95°
2026-05-05 10:48 48.82484 43.89591 4988 ft 101 kts 95°
2026-05-05 10:49 48.82378 43.90648 4991 ft 101 kts 95°
2026-05-05 10:49 48.82272 43.91717 4986 ft 103 kts 95°
2026-05-05 10:49 48.82164 43.92795 4986 ft 104 kts 95°
2026-05-05 10:49 48.82057 43.93876 4980 ft 103 kts 94°
2026-05-05 10:50 48.81952 43.94929 4976 ft 100 kts 95°
2026-05-05 10:50 48.81847 43.95986 4984 ft 104 kts 95°
2026-05-05 10:50 48.81738 43.97070 4983 ft 104 kts 95°
2026-05-05 10:50 48.81629 43.98156 4981 ft 103 kts 94°
2026-05-05 10:51 48.81522 43.99223 4988 ft 104 kts 95°
2026-05-05 10:51 48.81415 44.00301 4979 ft 101 kts 95°
2026-05-05 10:51 48.81307 44.01360 4982 ft 102 kts 95°
2026-05-05 10:51 48.81199 44.02445 4985 ft 105 kts 95°
2026-05-05 10:52 48.81089 44.03538 4979 ft 105 kts 95°
2026-05-05 10:52 48.81016 44.04261 4982 ft 104 kts 95°
2026-05-05 10:52 48.80868 44.05728 4980 ft 105 kts 94°
2026-05-05 10:52 48.80759 44.06781 4963 ft 95 kts 95°
2026-05-05 10:53 48.80667 44.07684 4945 ft 81 kts 94°
2026-05-05 10:53 48.80611 44.08266 4848 ft 88 kts 94°
2026-05-05 10:53 48.80512 44.09227 4702 ft 95 kts 95°
2026-05-05 10:53 48.80408 44.10232 4555 ft 98 kts 95°
2026-05-05 10:54 48.80304 44.11258 4406 ft 99 kts 94°
2026-05-05 10:54 48.80198 44.12300 4265 ft 101 kts 95°
2026-05-05 10:54 48.80090 44.13357 4096 ft 103 kts 95°
2026-05-05 10:54 48.79977 44.14461 3849 ft 107 kts 96°
2026-05-05 10:55 48.79861 44.15583 3603 ft 108 kts 95°
2026-05-05 10:55 48.79745 44.16719 3362 ft 110 kts 96°
2026-05-05 10:55 48.79570 44.17844 3077 ft 112 kts 112°
2026-05-05 10:55 48.79161 44.18847 2736 ft 110 kts 116°
2026-05-05 10:56 48.78797 44.19826 2603 ft 106 kts 113°
2026-05-05 10:56 48.78463 44.20821 2448 ft 106 kts 112°
2026-05-05 10:56 48.78159 44.21859 2248 ft 108 kts 108°
2026-05-05 10:56 48.77893 44.22892 1979 ft 109 kts 104°
2026-05-05 10:57 48.77653 44.23945 1811 ft 103 kts 106°
2026-05-05 10:57 48.77333 44.24936 1624 ft 104 kts 116°
2026-05-05 10:57 48.76998 44.25922 1469 ft 103 kts 110°
2026-05-05 10:57 48.76778 44.26951 1178 ft 103 kts 103°
2026-05-05 10:58 48.76638 44.27988 977 ft 97 kts 95°
2026-05-05 10:58 48.76683 44.28935 854 ft 88 kts 78°
2026-05-05 10:58 48.76859 44.29790 733 ft 83 kts 69°
2026-05-05 10:58 48.77083 44.30572 601 ft 78 kts 64°
2026-05-05 10:59 48.77320 44.31289 552 ft 75 kts 65°
2026-05-05 10:59 48.77531 44.31972 502 ft 67 kts 64°
2026-05-05 10:59 48.77712 44.32547 472 ft 53 kts 65°
2026-05-05 10:59 48.77827 44.32928 457 ft 24 kts 65°
2026-05-05 11:00 48.77897 44.33167 451 ft 26 kts 70°
2026-05-05 11:00 48.77973 44.33403 446 ft 24 kts 62°